{"data":{"norad_id":40071,"epoch":"2026-05-25T04:36:47.909088Z","epoch_age_seconds":52256,"freshness":"FRESH","line1":"1 40071U 14037C   26145.19222117  .00002039  00000+0  21844-3 0  9995","line2":"2 40071  98.3856 105.5028 0007212   0.4929 359.6293 14.89904435642680","mean_motion":14.89904435,"eccentricity":0.0007212,"inclination_deg":98.3856,"raan_deg":105.5028,"arg_perigee_deg":0.4929,"mean_anomaly_deg":359.6293,"bstar":0.00021844,"rev_number":64268,"period_min":96.650494231195,"perigee_km":593.2026081012,"apogee_km":603.26532558377,"semimajor_km":6976.3709668425,"source":"CELESTRAK","updated_at":"2026-05-25T13:37:55.467664Z"}}